• în România
  • Lista ţărilor
  • Pe 7 zile
  • Temperatura apei
  • Hartă satelitară
  • Meteo pe hartă
  • Widget-uri
  • user-avatar
    Intrare

    Meteo pe oră la Hasselt

    Astăzi, 15 Decembrie, Vineri

    Timp Temperatura Precipitaţii Vânt Presiune Umiditate
    00:00 0°C° 0 mm 4 m/s 739 mmHg 90%
    01:00 0°C° 0 mm 4 m/s 740 mmHg 90%
    02:00 0°C° 0 mm 4 m/s 740 mmHg 90%
    03:00 0°C° 0 mm 4 m/s 740 mmHg 90%
    04:00 0°C° 0 mm 4 m/s 740 mmHg 91%
    05:00 +1°C° 0 mm 3 m/s 740 mmHg 92%
    06:00 +1°C° 0 mm 3 m/s 741 mmHg 92%
    07:00 +1°C° 0,1 mm 3 m/s 741 mmHg 92%
    08:00 +1°C° 0,1 mm 3 m/s 741 mmHg 93%
    09:00 +2°C° 0,1 mm 3 m/s 742 mmHg 93%
    10:00 +2°C° 0 mm 3 m/s 742 mmHg 89%
    11:00 +3°C° 0 mm 3 m/s 742 mmHg 86%
    12:00 +4°C° 0 mm 3 m/s 743 mmHg 82%
    13:00 +5°C° 0,1 mm 2 m/s 743 mmHg 84%
    14:00 +4°C° 0,1 mm 2 m/s 744 mmHg 86%
    15:00 +5°C° 0,1 mm 1 m/s 744 mmHg 88%
    16:00 +4°C° 0 mm 1 m/s 745 mmHg 89%
    17:00 +4°C° 0 mm 1 m/s 745 mmHg 90%
    18:00 +3°C° 0 mm 1 m/s 746 mmHg 91%
    19:00 +3°C° 0 mm 1 m/s 747 mmHg 92%
    20:00 +3°C° 0 mm 1 m/s 747 mmHg 92%
    21:00 +2°C° 0 mm 1 m/s 748 mmHg 92%
    22:00 +2°C° 0 mm 1 m/s 749 mmHg 93%
    23:00 +1°C° 0 mm 2 m/s 749 mmHg 93%

    Mâine, 16 Decembrie, Sâmbătă

    Timp Temperatura Precipitaţii Vânt Presiune Umiditate
    00:00 +1°C° 0 mm 2 m/s 750 mmHg 93%
    01:00 +1°C° 0,1 mm 2 m/s 751 mmHg 93%
    02:00 +2°C° 0,1 mm 2 m/s 751 mmHg 92%
    03:00 +2°C° 0,1 mm 2 m/s 752 mmHg 92%
    04:00 +1°C° 0,1 mm 3 m/s 752 mmHg 91%
    05:00 +1°C° 0,1 mm 3 m/s 753 mmHg 91%
    06:00 +1°C° 0,1 mm 3 m/s 753 mmHg 91%
    07:00 +1°C° 0,1 mm 3 m/s 754 mmHg 89%
    08:00 +1°C° 0,1 mm 3 m/s 755 mmHg 87%
    09:00 +1°C° 0,1 mm 3 m/s 755 mmHg 85%
    10:00 +1°C° 0,1 mm 4 m/s 756 mmHg 81%
    11:00 +3°C° 0,1 mm 4 m/s 756 mmHg 76%
    12:00 +3°C° 0,1 mm 5 m/s 756 mmHg 72%
    13:00 +4°C° 0,2 mm 4 m/s 757 mmHg 74%
    14:00 +3°C° 0,2 mm 4 m/s 757 mmHg 76%
    15:00 +3°C° 0,2 mm 4 m/s 757 mmHg 78%
    16:00 +1°C° 0,2 mm 4 m/s 758 mmHg 80%
    17:00 +1°C° 0,2 mm 4 m/s 759 mmHg 82%
    18:00 +1°C° 0,2 mm 4 m/s 759 mmHg 84%
    19:00 0°C° 0,1 mm 4 m/s 760 mmHg 86%
    20:00 0°C° 0,1 mm 4 m/s 760 mmHg 87%
    21:00 0°C° 0,1 mm 4 m/s 761 mmHg 88%
    22:00 0°C° 0,1 mm 4 m/s 761 mmHg 88%
    23:00 +1°C° 0,1 mm 3 m/s 762 mmHg 89%

    Poimâine, 17 Decembrie, Duminică

    Timp Temperatura Precipitaţii Vânt Presiune Umiditate
    00:00 +1°C° 0,1 mm 3 m/s 762 mmHg 90%
    01:00 +1°C° 0,1 mm 3 m/s 763 mmHg 90%
    02:00 +1°C° 0,1 mm 3 m/s 763 mmHg 90%
    03:00 +1°C° 0,1 mm 3 m/s 763 mmHg 91%
    04:00 +1°C° 0,1 mm 3 m/s 764 mmHg 91%
    05:00 +1°C° 0,1 mm 3 m/s 764 mmHg 91%
    06:00 +1°C° 0,1 mm 3 m/s 764 mmHg 91%
    07:00 0°C° 0,1 mm 4 m/s 765 mmHg 90%
    08:00 0°C° 0,1 mm 4 m/s 765 mmHg 89%
    09:00 0°C° 0,1 mm 4 m/s 766 mmHg 88%
    10:00 +1°C° 0 mm 4 m/s 766 mmHg 85%
    11:00 +1°C° 0 mm 4 m/s 766 mmHg 81%
    12:00 +3°C° 0 mm 4 m/s 766 mmHg 78%
    13:00 +3°C° 0 mm 4 m/s 766 mmHg 79%
    14:00 +1°C° 0 mm 4 m/s 766 mmHg 81%
    15:00 +1°C° 0 mm 4 m/s 766 mmHg 82%
    16:00 +1°C° 0 mm 4 m/s 766 mmHg 84%
    17:00 +1°C° 0 mm 4 m/s 766 mmHg 86%
    18:00 +1°C° 0 mm 4 m/s 766 mmHg 87%
    19:00 +1°C° 0,1 mm 5 m/s 766 mmHg 89%
    20:00 +2°C° 0,1 mm 5 m/s 766 mmHg 90%
    21:00 +2°C° 0,1 mm 5 m/s 766 mmHg 92%
    22:00 +3°C° 0,2 mm 6 m/s 765 mmHg 91%
    23:00 +3°C° 0,2 mm 7 m/s 765 mmHg 91%

    18 Decembrie, Luni

    Timp Temperatura Precipitaţii Vânt Presiune Umiditate
    00:00 +4°C° 0,2 mm 7 m/s 764 mmHg 91%
    01:00 +4°C° 1,2 mm 8 m/s 764 mmHg 91%
    02:00 +5°C° 1,2 mm 8 m/s 763 mmHg 90%
    03:00 +5°C° 1,2 mm 8 m/s 763 mmHg 90%
    04:00 +5°C° 0,9 mm 8 m/s 763 mmHg 91%
    05:00 +5°C° 0,9 mm 7 m/s 763 mmHg 91%
    06:00 +7°C° 0,9 mm 6 m/s 764 mmHg 92%
    07:00 +6°C° 0,3 mm 5 m/s 764 mmHg 91%
    08:00 +6°C° 0,3 mm 5 m/s 764 mmHg 91%
    09:00 +6°C° 0,3 mm 4 m/s 765 mmHg 90%
    10:00 +6°C° 0 mm 4 m/s 765 mmHg 85%
    11:00 +6°C° 0 mm 5 m/s 765 mmHg 79%
    12:00 +7°C° 0 mm 5 m/s 766 mmHg 74%
    13:00 +6°C° 0 mm 4 m/s 766 mmHg 75%
    14:00 +6°C° 0 mm 4 m/s 766 mmHg 77%
    15:00 +5°C° 0 mm 3 m/s 767 mmHg 78%
    16:00 +4°C° 0 mm 3 m/s 767 mmHg 81%
    17:00 +3°C° 0 mm 3 m/s 768 mmHg 84%
    18:00 +4°C° 0 mm 2 m/s 768 mmHg 88%
    19:00 +3°C° 0 mm 2 m/s 769 mmHg 89%
    20:00 +3°C° 0 mm 2 m/s 769 mmHg 90%
    21:00 +3°C° 0 mm 2 m/s 770 mmHg 91%
    22:00 +3°C° 0 mm 2 m/s 770 mmHg 91%
    23:00 +3°C° 0 mm 1 m/s 771 mmHg 92%

    19 Decembrie, Marţi

    Timp Temperatura Precipitaţii Vânt Presiune Umiditate
    00:00 +3°C° 0 mm 1 m/s 771 mmHg 92%
    01:00 +3°C° 0 mm 1 m/s 771 mmHg 92%
    02:00 +3°C° 0 mm 1 m/s 771 mmHg 93%
    03:00 +3°C° 0 mm 1 m/s 772 mmHg 93%
    04:00 +3°C° 0 mm 1 m/s 772 mmHg 93%
    05:00 +3°C° 0 mm 1 m/s 772 mmHg 93%
    06:00 +3°C° 0 mm 1 m/s 772 mmHg 93%
    07:00 +3°C° 0 mm 1 m/s 773 mmHg 92%
    08:00 +3°C° 0 mm 1 m/s 773 mmHg 91%
    09:00 +2°C° 0 mm 2 m/s 773 mmHg 90%
    10:00 +3°C° 0 mm 2 m/s 773 mmHg 86%
    11:00 +4°C° 0 mm 2 m/s 773 mmHg 82%
    12:00 +6°C° 0 mm 2 m/s 773 mmHg 78%
    13:00 +5°C° 0 mm 2 m/s 773 mmHg 80%
    14:00 +5°C° 0 mm 2 m/s 773 mmHg 82%
    15:00 +5°C° 0 mm 2 m/s 773 mmHg 84%
    16:00 +4°C° 0 mm 2 m/s 773 mmHg 85%
    17:00 +4°C° 0 mm 2 m/s 773 mmHg 86%
    18:00 +4°C° 0 mm 2 m/s 773 mmHg 86%
    19:00 +4°C° 0,3 mm 2 m/s 773 mmHg 87%
    20:00 +3°C° 0,3 mm 3 m/s 773 mmHg 88%
    21:00 +4°C° 0,3 mm 3 m/s 773 mmHg 90%
    22:00 +5°C° 0,3 mm 2 m/s 773 mmHg 91%
    23:00 +5°C° 0,3 mm 2 m/s 773 mmHg 93%

    20 Decembrie, Miercuri

    Timp Temperatura Precipitaţii Vânt Presiune Umiditate
    00:00 +5°C° 0,3 mm 2 m/s 772 mmHg 94%
    01:00 +5°C° 0,1 mm 2 m/s 772 mmHg 95%
    02:00 +6°C° 0,1 mm 2 m/s 772 mmHg 95%
    03:00 +6°C° 0,1 mm 2 m/s 772 mmHg 96%
    04:00 +6°C° 0,2 mm 2 m/s 772 mmHg 96%
    05:00 +6°C° 0,2 mm 2 m/s 772 mmHg 96%
    06:00 +6°C° 0,2 mm 2 m/s 772 mmHg 97%
    07:00 +7°C° 0,1 mm 2 m/s 773 mmHg 97%
    08:00 +7°C° 0,1 mm 2 m/s 773 mmHg 97%
    09:00 +7°C° 0,1 mm 2 m/s 773 mmHg 97%
    10:00 +8°C° 0 mm 2 m/s 773 mmHg 96%
    11:00 +8°C° 0 mm 2 m/s 773 mmHg 96%
    12:00 +8°C° 0 mm 3 m/s 772 mmHg 96%
    13:00 +8°C° 0 mm 2 m/s 772 mmHg 96%
    14:00 +9°C° 0 mm 2 m/s 772 mmHg 96%
    15:00 +9°C° 0 mm 2 m/s 772 mmHg 97%
    16:00 +9°C° 0 mm 2 m/s 772 mmHg 97%
    17:00 +9°C° 0 mm 2 m/s 772 mmHg 97%
    18:00 +9°C° 0 mm 3 m/s 773 mmHg 97%
    19:00 +9°C° 0 mm 3 m/s 773 mmHg 97%
    20:00 +9°C° 0 mm 3 m/s 773 mmHg 97%
    21:00 +9°C° 0 mm 3 m/s 773 mmHg 97%
    22:00 +9°C° 0,1 mm 3 m/s 772 mmHg 97%
    23:00 +9°C° 0,1 mm 3 m/s 772 mmHg 97%
    Arată mai mult